Temperature
26 26 26 26 26 26 26 26 27 27 27 27 26 25 24 22 22 21 20 19 19 18 18 17 17 17 17 17 17 17 17 17 17 17 17 17 17 17 17 16 16 16 16 16
24 25 25 25 26 26 26 26 26 27 26 27 25 23 22 21 21 20 19 19 18 18 17 17 17 17 17 17 17 17 17 17 17 17 17 17 17 17 17 17 16 16 16 16
23 25 24 24 25 26 26 26 26 26 26 25 23 22 21 20 20 20 19 18 18 18 17 17 17 17 17 17 17 17 17 17 17 17 17 17 17 17 16 16 16 16 16 16
23 22 21 25 25 25 25 25 26 26 25 23 22 20 18 18 18 18 18 17 17 17 17 17 17 17 17 17 17 16 16 16 16 16 16 17 16 16 16 16 16 16 16 15
21 21 22 24 24 24 23 23 24 24 23 21 19 19 18 17 17 17 16 16 16 16 16 16 16 17 16 16 16 16 16 16 16 16 16 16 16 16 16 16 15 15 15 15
20 20 21 23 22 22 22 22 23 22 21 20 20 20 18 16 15 15 15 15 15 15 16 16 16 16 16 16 16 16 16 15 16 16 16 16 16 15 15 15 15 15 15 14
20 20 21 21 21 21 21 21 21 20 20 19 20 18 15 14 14 14 14 14 15 15 15 15 15 15 15 15 15 15 15 15 15 15 15 15 15 15 15 14 14 14 14 14
19 19 20 20 20 20 19 18 18 18 18 17 16 14 14 13 13 13 13 13 14 14 14 14 14 14 14 14 14 14 14 14 14 14 14 14 14 14 14 14 14 13 13 13
19 19 18 17 17 17 16 17 17 16 15 15 14 13 13 12 12 12 12 12 12 13 13 13 13 14 13 13 13 13 13 13 13 13 13 13 13 13 13 13 13 13 13 12
17 17 17 16 15 15 15 15 15 15 14 14 13 12 12 12 11 12 12 12 12 12 12 12 12 13 12 12 13 13 13 12 12 12 12 12 12 12 12 12 12 12 12 12
16 16 16 14 14 14 14 13 13 13 13 13 12 11 11 11 11 11 11 11 11 11 11 11 11 12 12 12 12 12 12 12 12 12 11 11 11 11 11 11 11 11 11 11
15 14 14 13 13 12 12 12 12 12 12 12 12 11 11 11 10 10 10 10 11 11 11 11 11 11 11 11 11 11 11 11 11 11 11 11 11 11 10 10 10 10 10 10
13 12 12 12 12 12 11 12 11 11 11 11 11 11 10 10 10 10 10 10 10 10 10 10 10 10 10 10 10 10 10 10 11 11 11 11 10 10 10 10 9 9 9 9
12 12 11 11 11 11 11 11 11 11 11 10 10 10 10 10 10 10 10 10 10 10 10 10 10 9 9 10 10 10 10 10 10 10 10 10 10 10 10 10 9 9 8 8
11 11 11 11 11 11 11 11 10 10 10 10 10 10 9 9 9 9 9 9 9 9 9 9 9 9 9 9 9 9 9 9 9 9 9 9 9 9 9 9 9 9 8 8
11 11 11 11 10 10 10 10 10 10 10 10 10 9 9 9 9 9 9 9 9 9 8 8 8 8 8 8 8 8 8 8 8 9 9 9 9 9 8 8 8 8 7 7
11 11 11 10 10 10 10 10 10 10 10 9 9 9 9 9 9 9 8 8 8 8 8 8 8 8 7 7 8 8 8 8 8 8 8 8 8 8 7 7 7 7 6 5
11 11 11 10 10 10 10 10 10 10 10 9 9 9 9 9 9 8 8 8 8 7 7 7 7 7 7 7 7 7 8 8 7 7 7 7 7 7 7 6 6 6 5 5
11 10 10 10 10 10 10 10 10 9 9 9 9 9 9 9 8 8 8 8 7 7 7 7 7 7 7 7 7 7 7 7 7 7 6 6 6 6 6 6 5 5 5 4
10 10 10 10 10 10 10 10 9 9 9 9 9 9 8 8 8 8 8 8 7 7 7 6 6 6 6 6 6 7 7 7 7 6 6 6 6 5 5 5 4 4 4 4
10 10 10 10 10 10 10 10 10 9 9 9 9 9 8 8 8 8 8 7 7 6 6 6 6 6 6 6 6 6 6 6 6 6 5 5 4 4 4 4 3 3 3 3
11 10 10 10 10 10 10 10 9 9 9 9 9 8 8 8 8 7 7 7 6 6 6 6 6 6 6 5 6 6 5 5 5 5 4 4 4 3 3 3 3 2 2 2
10 10 10 10 10 9 9 9 9 9 9 8 8 8 8 8 8 8 7 6 6 6 6 5 5 5 5 5 5 5 4 4 4 4 4 3 3 3 3 2 2 2 2 1
10 10 10 9 9 9 9 9 9 8 8 8 8 7 7 7 7 7 6 6 6 5 5 5 5 5 4 4 4 4 4 4 3 3 3 3 2 2 2 2 1 1 1 1
9 9 9 9 9 9 9 9 8 8 8 8 7 7 7 7 7 6 6 5 5 5 4 4 4 4 4 4 4 3 3 3 3 3 2 2 2 2 1 1 1 1 1 0
9 9 9 9 9 9 9 9 9 8 8 8 7 7 7 6 6 5 5 5 4 4 4 4 4 3 3 3 3 3 3 2 2 2 2 2 1 1 1 1 0 0 0 -0
9 9 9 9 9 9 9 9 8 8 8 7 7 6 6 6 5 5 5 4 4 4 4 3 3 3 3 3 2 2 2 2 2 1 1 1 1 1 0 0 0 -0 -0 -0
Wind_Speed
12 11 11 13 14 13 15 16 16 14 12 8 3 2 3 5 8 9 9 9 10 10 9 9 9 9 10 10 11 11 11 11 10 10 10 10 10 9 10 10 11 11 11 11
13 13 14 17 18 18 18 18 18 17 15 6 2 2 3 5 7 9 9 9 9 9 9 9 9 9 9 9 9 9 10 10 9 9 9 9 9 9 9 9 10 10 11 11
14 12 13 18 18 19 19 18 18 18 13 5 4 3 3 4 6 7 8 8 8 8 8 8 8 8 9 9 8 9 9 8 8 8 8 8 8 8 8 8 8 8 8 9
11 10 15 10 5 9 13 15 14 12 7 5 3 3 3 3 4 6 6 6 6 7 7 7 7 8 8 8 8 8 8 7 7 7 8 7 7 7 7 6 6 6 6 6
9 12 13 10 5 6 9 12 9 8 6 6 7 6 4 4 4 5 6 6 5 6 6 7 7 8 9 8 8 7 6 6 6 6 6 6 6 5 5 4 4 4 4 4
9 10 10 4 1 4 7 10 4 6 7 9 9 5 3 6 7 8 8 7 7 7 8 8 8 9 9 8 7 6 6 5 5 5 6 5 4 4 3 4 4 3 3 2
12 12 9 2 4 4 7 3 2 3 6 7 4 3 8 9 9 9 10 10 9 9 9 9 9 10 11 10 8 7 7 7 6 6 6 5 5 4 3 3 3 3 2 2
8 10 7 5 4 4 4 5 2 1 4 6 9 11 11 11 11 11 12 12 12 12 11 10 10 11 12 11 9 9 10 10 9 8 7 6 6 5 4 3 4 3 3 3
5 5 4 5 5 7 6 4 1 3 7 10 12 12 13 12 12 12 13 13 13 13 13 12 12 12 13 11 10 11 11 11 10 10 9 8 7 6 5 4 3 3 3 2
6 6 5 5 5 6 4 2 2 6 9 12 14 15 14 13 12 13 13 13 13 14 15 14 13 13 12 11 10 11 11 10 9 9 9 9 7 6 6 5 4 3 3 3
7 7 5 5 5 3 4 6 8 9 10 13 16 16 15 14 13 13 13 12 13 14 14 14 13 13 12 11 10 11 10 9 8 9 8 8 9 8 7 8 7 5 5 4
4 5 3 3 5 6 7 9 11 13 13 14 16 17 16 15 13 13 13 13 13 14 14 14 13 13 11 10 10 9 9 8 7 7 6 6 7 8 12 9 10 11 10 8
1 3 3 3 5 7 9 11 13 14 16 16 15 16 16 15 14 14 14 14 14 14 14 13 13 13 11 10 10 10 9 8 6 6 6 5 5 4 5 6 8 9 9 9
3 3 5 6 8 10 13 14 16 16 16 16 16 16 15 15 15 14 14 13 13 13 13 13 13 12 11 10 10 9 9 8 7 6 6 5 5 4 4 3 3 3 6 8
4 5 7 10 12 13 14 15 17 17 17 16 15 15 15 15 14 14 13 12 13 13 13 13 13 12 10 10 10 9 8 7 6 5 5 5 5 4 4 4 4 4 3 3
8 10 11 13 14 14 15 16 17 17 16 16 16 15 15 14 14 13 12 11 12 13 11 11 11 10 9 8 7 7 7 8 6 4 5 5 4 5 5 4 4 4 5 6
11 11 13 14 14 14 14 15 15 16 16 16 15 15 14 14 13 12 12 12 11 11 10 10 9 8 7 7 6 5 5 5 3 4 5 5 5 5 5 5 5 5 5 6
11 13 13 14 14 15 15 15 15 15 15 15 14 13 13 12 12 11 11 10 10 10 9 9 8 7 7 7 6 5 4 4 5 5 5 5 5 5 5 5 5 6 5 3
15 15 15 15 15 15 15 15 14 13 13 13 13 13 12 11 11 10 9 8 8 8 8 7 5 6 7 7 5 3 4 4 4 4 4 3 4 5 5 6 6 6 6 6
16 15 15 15 15 15 14 14 13 12 11 12 12 12 11 10 9 8 7 7 7 6 6 5 4 5 6 6 6 4 4 4 4 4 4 5 5 5 5 6 6 6 6 6
16 16 15 15 14 14 13 12 12 12 11 10 10 10 9 8 7 6 5 6 7 5 4 2 3 4 4 4 4 4 4 4 4 4 5 5 5 5 5 6 6 6 7 7
14 14 15 14 14 13 11 11 11 11 10 10 9 9 8 7 7 6 6 5 5 2 1 2 4 6 5 5 3 4 4 4 4 4 5 5 4 5 5 6 6 7 7 7
12 13 13 13 13 12 11 11 11 10 10 9 8 7 6 5 4 4 4 4 4 1 2 5 6 4 7 3 3 4 4 4 4 4 4 4 4 5 5 6 6 6 7 7
12 12 11 11 11 11 11 10 10 9 9 8 7 6 5 4 4 4 5 6 5 3 5 7 5 4 6 3 4 4 4 4 4 4 4 4 4 4 5 5 5 6 6 7
11 11 11 10 9 8 9 9 9 8 7 6 7 5 4 4 4 4 5 5 5 2 5 6 3 3 2 4 4 4 4 5 5 4 4 5 4 4 5 5 6 6 6 6
9 8 8 7 7 6 6 6 6 5 5 5 5 4 4 5 5 4 4 4 4 3 3 4 3 1 3 4 4 4 4 3 3 4 5 4 5 5 5 5 6 6 6 6
9 8 7 6 6 5 5 5 5 4 4 4 4 4 4 4 4 4 3 3 3 3 3 3 3 3 3 3 3 3 3 4 4 4 4 4 5 5 5 5 5 5 6 6
Wind_Direction
266 275 269 262 256 247 247 255 262 267 267 268 237 214 179 170 167 163 162 165 167 165 162 164 165 169 173 175 177 177 177 181 185 187 190 193 196 199 201 206 210 211 215 219
262 261 264 264 259 255 253 254 257 263 266 269 219 174 174 172 168 167 164 164 164 163 161 164 166 169 170 171 173 174 178 182 184 184 186 190 192 195 199 206 213 214 218 221
265 266 268 258 254 254 253 253 255 256 258 220 200 179 168 164 167 169 163 160 159 162 164 167 169 171 171 170 168 170 175 179 179 182 184 189 192 192 197 203 208 211 217 222
266 266 254 261 277 268 265 259 256 258 248 218 171 125 107 137 150 148 147 147 150 155 157 161 161 160 161 160 163 166 169 172 176 179 179 179 183 187 191 194 198 204 214 222
253 254 261 262 266 270 267 264 255 242 204 161 143 125 104 98 114 122 120 120 122 128 133 137 142 147 146 147 148 149 151 155 163 170 167 167 173 174 176 179 191 200 206 216
246 254 256 268 23 321 282 258 225 194 171 167 173 191 152 110 108 106 100 97 99 104 104 110 118 126 128 126 123 122 120 120 121 130 136 140 142 144 148 161 172 179 167 172
248 252 258 337 333 286 248 281 54 161 169 179 191 117 117 114 105 103 99 95 92 91 89 89 98 107 107 104 101 99 101 102 103 107 109 108 108 110 116 121 124 128 128 117
249 249 250 18 320 278 312 344 350 118 134 120 109 110 115 111 108 105 101 96 94 90 85 81 87 96 95 90 91 94 94 91 88 86 89 96 98 96 97 107 119 121 115 102
267 279 336 336 312 304 299 287 282 115 118 122 120 119 115 110 106 102 99 95 93 92 86 79 78 84 87 85 88 90 87 83 82 79 74 74 82 88 92 89 86 88 90 84
269 278 304 322 322 314 296 243 149 128 127 126 123 120 115 109 104 100 96 94 93 90 86 79 76 76 79 83 85 87 85 82 81 79 76 70 61 61 62 58 59 60 55 52
269 283 308 335 348 14 68 96 104 110 118 123 122 119 115 110 104 99 94 91 90 88 85 82 77 74 72 75 81 83 81 79 79 78 76 73 67 51 55 53 43 35 40 41
291 327 326 341 32 73 94 103 111 116 116 118 118 115 112 108 104 100 97 95 91 88 86 83 79 73 68 70 76 80 80 76 75 76 73 75 81 81 64 70 76 67 51 40
317 23 35 52 69 84 96 103 107 112 114 113 111 111 109 106 103 99 96 93 90 88 86 83 79 73 66 65 67 69 69 64 64 64 65 62 64 67 81 92 96 89 83 70
83 84 86 82 91 98 104 106 106 107 107 108 109 108 107 105 101 96 93 91 90 87 84 80 75 69 64 65 66 67 68 65 57 59 55 52 47 41 38 34 48 71 100 98
82 99 109 102 100 103 110 112 110 109 108 107 108 107 106 104 101 97 94 93 91 86 80 77 73 66 59 62 62 60 60 59 54 53 53 50 43 37 35 29 14 12 22 77
108 107 109 109 108 109 111 112 111 111 111 111 108 107 105 102 100 97 94 92 88 83 79 75 70 62 56 58 63 68 66 51 35 42 46 42 33 26 23 16 9 8 5 7
120 118 118 117 115 114 113 113 113 114 112 110 110 110 109 107 103 99 95 91 88 85 79 73 68 62 57 52 49 56 61 67 48 31 39 30 22 15 11 5 1 359 3 30
115 113 114 116 116 114 111 110 111 113 114 115 115 113 111 108 106 104 102 100 97 89 79 72 68 66 60 51 39 34 43 42 36 33 31 24 10 4 1 1 359 355 353 11
113 112 111 111 111 111 111 110 109 110 113 114 113 112 112 111 110 109 109 106 101 93 81 72 57 63 61 44 17 42 35 37 37 32 25 19 357 9 7 3 2 0 354 352
112 111 111 111 111 111 112 112 112 110 111 112 112 113 112 111 111 109 105 95 79 77 83 71 69 60 55 39 351 29 30 25 26 25 17 11 14 13 10 8 7 4 359 356
118 118 116 113 112 111 112 114 114 114 113 113 113 114 114 114 114 113 109 99 89 80 88 94 66 54 45 19 329 22 27 20 17 19 17 18 19 14 12 10 7 5 1 358
118 117 116 115 112 109 109 111 112 112 111 111 112 114 115 115 112 105 94 87 101 88 111 85 66 51 11 327 14 27 24 20 20 25 29 23 18 16 15 12 9 6 5 1
115 117 117 116 114 114 113 112 110 110 109 109 110 111 106 99 101 107 105 92 97 86 69 67 62 33 320 325 28 33 31 28 29 31 33 29 22 18 18 16 10 6 4 0
116 115 115 118 120 119 115 111 109 109 110 109 105 101 101 103 95 85 88 92 75 74 81 80 64 352 308 24 38 38 41 37 31 28 30 32 30 26 22 15 10 9 8 4
116 118 120 126 125 120 118 121 120 120 119 109 106 103 92 82 84 82 90 100 105 114 105 105 104 325 1 48 48 45 46 39 25 20 32 23 21 28 27 19 13 11 10 8
120 121 114 105 102 116 124 124 122 120 115 112 105 97 90 90 93 95 97 103 106 100 98 111 112 123 64 60 55 50 49 52 38 28 29 25 28 30 27 19 17 14 11 10
120 118 118 114 111 109 113 116 117 113 108 109 106 101 97 97 98 97 97 101 110 105 98 95 86 78 74 65 60 57 50 43 35 29 28 29 32 32 30 24 19 14 8 12
Height
1453 1451 1451 1453 1453 1452 1455 1452 1454 1449 1447 1446 1450 1455 1459 1462 1465 1467 1470 1472 1474 1476 1478 1481 1483 1486 1489 1492 1495 1498 1501 1503 1506 1509 1512 1514 1517 1519 1522 1524 1526 1528 1530 1532
1457 1452 1452 1453 1449 1449 1449 1448 1448 1447 1447 1446 1452 1457 1460 1462 1464 1466 1469 1471 1473 1475 1478 1480 1482 1484 1487 1490 1493 1496 1499 1502 1504 1507 1509 1512 1514 1516 1518 1520 1522 1524 1526 1528
1459 1451 1454 1455 1445 1444 1443 1441 1443 1445 1444 1448 1453 1457 1460 1462 1464 1466 1469 1471 1472 1474 1476 1478 1481 1483 1486 1489 1492 1495 1497 1500 1502 1505 1507 1509 1511 1513 1515 1517 1519 1520 1522 1524
1460 1461 1468 1444 1438 1440 1441 1439 1439 1440 1444 1449 1454 1459 1462 1464 1465 1467 1469 1470 1472 1474 1476 1478 1480 1482 1485 1488 1491 1494 1496 1498 1500 1503 1505 1506 1508 1510 1512 1513 1515 1516 1518 1520
1462 1461 1454 1443 1441 1442 1444 1442 1439 1441 1446 1452 1456 1459 1463 1464 1466 1467 1469 1470 1472 1474 1476 1478 1480 1482 1484 1487 1490 1492 1494 1496 1498 1500 1502 1504 1505 1507 1508 1510 1511 1513 1514 1515
1461 1465 1460 1444 1443 1445 1446 1444 1440 1442 1447 1452 1454 1455 1461 1465 1466 1468 1469 1471 1472 1474 1476 1478 1480 1482 1484 1487 1489 1491 1493 1495 1497 1499 1500 1502 1503 1505 1506 1507 1508 1510 1511 1512
1459 1459 1448 1444 1445 1446 1451 1446 1444 1444 1448 1451 1453 1457 1464 1466 1467 1469 1470 1472 1473 1475 1477 1479 1481 1482 1484 1487 1489 1491 1493 1495 1496 1498 1499 1501 1502 1503 1504 1506 1507 1507 1508 1509
1456 1458 1453 1447 1446 1448 1448 1447 1446 1448 1450 1453 1456 1460 1464 1467 1469 1471 1472 1474 1475 1477 1478 1480 1482 1484 1485 1487 1490 1492 1494 1495 1497 1498 1499 1500 1501 1502 1504 1505 1506 1506 1507 1508
1454 1454 1451 1451 1451 1450 1450 1449 1449 1450 1453 1455 1458 1463 1467 1470 1472 1474 1475 1477 1479 1480 1481 1483 1484 1486 1487 1489 1492 1494 1495 1496 1498 1499 1500 1501 1502 1503 1504 1504 1506 1506 1507 1507
1455 1451 1452 1452 1450 1449 1448 1448 1450 1452 1454 1457 1460 1465 1469 1472 1475 1477 1478 1480 1482 1483 1484 1486 1487 1489 1490 1492 1494 1495 1497 1498 1499 1501 1501 1502 1503 1504 1504 1505 1506 1506 1506 1507
1454 1453 1452 1452 1451 1449 1448 1448 1450 1454 1457 1460 1463 1467 1471 1475 1478 1480 1482 1484 1486 1487 1488 1489 1491 1492 1494 1495 1497 1498 1499 1500 1502 1503 1503 1503 1504 1504 1504 1504 1505 1506 1506 1506
1456 1455 1454 1454 1452 1451 1450 1451 1453 1456 1460 1464 1467 1470 1474 1478 1482 1484 1486 1488 1490 1491 1492 1494 1495 1496 1498 1499 1500 1500 1502 1503 1504 1505 1505 1506 1506 1506 1505 1505 1505 1505 1505 1505
1458 1457 1456 1455 1454 1454 1454 1455 1457 1460 1464 1468 1472 1475 1478 1482 1485 1488 1490 1493 1494 1496 1497 1499 1499 1501 1502 1503 1503 1503 1504 1505 1506 1507 1507 1508 1508 1508 1507 1506 1506 1505 1504 1503
1459 1458 1458 1457 1458 1458 1459 1461 1463 1466 1470 1473 1477 1480 1483 1486 1489 1492 1495 1497 1499 1500 1502 1502 1503 1504 1505 1505 1505 1506 1506 1507 1507 1508 1508 1508 1508 1508 1508 1507 1507 1506 1504 1503
1461 1460 1460 1461 1462 1463 1465 1466 1468 1472 1476 1479 1482 1486 1488 1491 1494 1497 1500 1502 1503 1504 1505 1506 1506 1507 1508 1508 1508 1508 1508 1509 1509 1509 1509 1509 1509 1508 1508 1507 1507 1506 1505 1503
1463 1463 1464 1465 1466 1468 1470 1472 1474 1477 1481 1484 1488 1491 1494 1496 1499 1501 1504 1506 1506 1507 1509 1509 1509 1510 1510 1510 1510 1511 1510 1510 1510 1511 1511 1510 1510 1509 1508 1508 1507 1505 1504 1502
1464 1466 1467 1469 1471 1473 1475 1478 1480 1483 1486 1489 1493 1496 1499 1501 1503 1505 1508 1509 1509 1510 1511 1512 1512 1512 1512 1512 1513 1513 1513 1512 1512 1512 1512 1511 1510 1509 1508 1507 1506 1505 1503 1501
1468 1470 1471 1473 1475 1478 1481 1484 1486 1489 1492 1495 1497 1500 1503 1505 1507 1509 1511 1512 1513 1514 1514 1514 1514 1515 1514 1514 1514 1514 1514 1514 1513 1513 1512 1511 1510 1509 1508 1507 1505 1504 1502 1500
1472 1474 1476 1479 1481 1483 1486 1489 1492 1495 1497 1500 1502 1505 1507 1509 1511 1512 1514 1515 1516 1516 1516 1516 1516 1516 1516 1515 1515 1515 1515 1514 1514 1513 1512 1510 1510 1509 1507 1506 1504 1503 1501 1500
1477 1479 1481 1484 1487 1489 1491 1494 1497 1499 1502 1504 1506 1508 1510 1512 1513 1515 1516 1517 1517 1518 1517 1517 1517 1517 1517 1516 1515 1516 1515 1515 1514 1513 1512 1511 1509 1508 1507 1505 1503 1502 1500 1498
1481 1484 1487 1489 1492 1494 1496 1499 1501 1503 1505 1507 1509 1511 1513 1514 1515 1517 1517 1518 1518 1518 1518 1518 1518 1518 1517 1516 1516 1516 1516 1515 1514 1513 1511 1510 1509 1507 1506 1504 1503 1501 1499 1497
1485 1488 1491 1493 1496 1498 1501 1503 1505 1507 1509 1510 1512 1514 1515 1516 1517 1518 1518 1519 1519 1519 1519 1520 1519 1517 1516 1516 1517 1516 1515 1514 1513 1512 1511 1509 1508 1507 1506 1504 1502 1500 1498 1496
1489 1492 1495 1497 1500 1502 1504 1507 1508 1510 1511 1513 1514 1516 1516 1517 1518 1519 1519 1519 1519 1519 1519 1518 1517 1516 1515 1517 1517 1516 1514 1513 1512 1511 1510 1509 1508 1506 1505 1503 1502 1500 1498 1495
1493 1496 1498 1501 1503 1505 1507 1509 1511 1512 1513 1514 1515 1516 1517 1518 1518 1519 1519 1518 1518 1518 1518 1517 1516 1515 1515 1516 1515 1514 1514 1513 1512 1511 1510 1509 1507 1506 1504 1503 1501 1499 1497 1495
1496 1499 1502 1504 1506 1508 1509 1511 1512 1513 1515 1516 1516 1517 1518 1518 1518 1518 1518 1517 1517 1517 1517 1516 1516 1515 1516 1516 1515 1514 1513 1512 1511 1510 1509 1508 1507 1506 1504 1502 1500 1498 1496 1494
1499 1502 1504 1506 1508 1509 1511 1512 1513 1515 1515 1516 1517 1517 1518 1518 1518 1518 1518 1518 1517 1517 1517 1516 1516 1516 1516 1515 1514 1514 1513 1512 1511 1510 1509 1508 1507 1505 1503 1501 1500 1498 1496 1494
1502 1504 1506 1508 1509 1511 1512 1513 1514 1515 1516 1516 1517 1517 1518 1518 1518 1518 1518 1517 1517 1517 1516 1516 1516 1516 1515 1515 1514 1514 1513 1512 1511 1510 1509 1508 1506 1505 1503 1501 1500 1498 1496 1494